Weather in Vakhovsk

Russia / Khanty-Mansi Autonomous Okrug — Yugra     60°57′13″N   78°47′02″E
temp.,
°C
wind,
m/s
gust,
m/s
humid.,
%
clouds,
%
prec.,
mm/h
press.,
hPa
HPBL,
m
15 april, thu
thu1523:000ssw2498100 0.0 1022149
02:00+1ssw3898100 0.0 1020261
05:00+2ssw51498100 0.0 1016437
08:00+4sw61799100 0.3 1013626
11:00+8sw6169585 0.3 1010692
14:00+12wsw71582100 0.0 1007909
17:00+12wsw61579100 0.1 1006665
20:00+6nw71291100 0.2 1008533
16 april, fri
fri1623:00+1nw41088100 0.9 1010679
02:000wnw3977100 0.0 1011582
05:000w41087100 0.0 1011689
08:00−1nw697394 0.1 10131210
11:00−4nnw6963100 0.2 10171401
14:00−5nnw79445 0.0 10211541
17:00−6nnw69455 0.0 10241367
20:00−8nnw47500 0.0 1026995
17 april, sat
sat1723:00−8nnw24504 0.0 1026708
02:00−8sw1251100 0.0 1025531
05:00−7ssw4749100 0.0 1022590
08:00−5ssw61144100 0.0 1019755
11:00−1ssw71236100 0.0 10141235
14:000sw71253100 0.0 10111599
17:00−3nw8117689 0.7 1011945
20:00−7nw611607 0.0 10131182
18 april, sun
sun1823:00−8wnw5116012 0.0 10141097
02:00−9wnw511609 0.0 1014934
05:00−11wnw597032 0.0 1015600
08:00−9nw466288 0.0 1015646
11:00−5nnw3448100 0.0 10151004
14:00−5n4545100 0.0 10151205
17:00−6nne5651100 0.0 10151227
20:00−7nne6966100 0.0 10151088
19 april, mon
mon1923:00−9nne71272100 0.0 1014751
02:00−11n71575100 0.0 1014650
05:00−12n71475100 0.0 1014655
08:00−10n81566100 0.0 1014722
11:00−5n8145388 0.0 10151074
14:00−4n8134615 0.0 10171183
17:00−6n8125499 0.0 10201161
20:00−9nnw7116380 0.0 1022914